QPF
0.06 0.07 0.09 0.04 0.02 0.01 0.02 0.02 0.02 0.03 0.03 0.02 0.01 0.01 0.01 0.02 0.03 0.02 0.01 0.01 0.01 0.01 0.01 0.01 0.01 0.01 0.00 0.00 0.01 0.01 0.02 0.02 0.02 0.04 0.05 0.06 0.04 0.04 0.04 0.04 0.04 0.04 0.05
0.02 0.05 0.07 0.02 0.01 0.01 0.01 0.02 0.03 0.02 0.02 0.02 0.02 0.01 0.01 0.02 0.03 0.02 0.01 0.01 0.01 0.01 0.02 0.01 0.01 0.01 0.00 0.00 0.01 0.01 0.02 0.02 0.03 0.04 0.05 0.03 0.04 0.03 0.03 0.03 0.04 0.04 0.05
0.01 0.02 0.05 0.03 0.01 0.02 0.02 0.02 0.02 0.02 0.01 0.01 0.01 0.01 0.01 0.01 0.01 0.01 0.01 0.01 0.01 0.01 0.01 0.02 0.01 0.01 0.01 0.00 0.01 0.01 0.01 0.01 0.03 0.04 0.03 0.02 0.03 0.05 0.03 0.03 0.03 0.04 0.05
0.01 0.01 0.02 0.03 0.01 0.01 0.01 0.01 0.01 0.01 0.01 0.01 0.01 0.01 0.00 0.00 0.00 0.00 0.00 0.01 0.01 0.01 0.01 0.01 0.01 0.01 0.00 0.00 0.01 0.01 0.01 0.02 0.03 0.05 0.02 0.02 0.02 0.05 0.04 0.03 0.03 0.03 0.04
0.01 0.02 0.03 0.03 0.01 0.01 0.01 0.01 0.00 0.00 0.01 0.01 0.01 0.01 0.00 0.01 0.01 0.00 0.00 0.01 0.02 0.02 0.02 0.01 0.01 0.01 0.01 0.00 0.01 0.01 0.02 0.02 0.03 0.03 0.02 0.01 0.04 0.05 0.03 0.02 0.03 0.03 0.03
0.01 0.01 0.03 0.02 0.01 0.01 0.00 0.00 0.00 0.01 0.02 0.01 0.01 0.00 0.00 0.00 0.01 0.01 0.01 0.01 0.01 0.02 0.02 0.01 0.01 0.01 0.01 0.01 0.01 0.01 0.02 0.02 0.02 0.01 0.01 0.02 0.04 0.05 0.02 0.02 0.02 0.02 0.03
0.00 0.01 0.01 0.01 0.01 0.00 0.00 0.00 0.01 0.01 0.01 0.01 0.00 0.00 0.01 0.00 0.00 0.01 0.00 0.01 0.01 0.01 0.01 0.01 0.01 0.01 0.01 0.01 0.01 0.01 0.02 0.03 0.01 0.01 0.03 0.04 0.05 0.04 0.03 0.02 0.02 0.03 0.03
0.00 0.01 0.01 0.01 0.00 0.00 0.00 0.00 0.00 0.01 0.01 0.00 0.00 0.00 0.00 0.00 0.00 0.01 0.00 0.01 0.01 0.01 0.01 0.01 0.01 0.01 0.01 0.01 0.01 0.02 0.02 0.02 0.01 0.01 0.03 0.04 0.06 0.04 0.03 0.02 0.03 0.04 0.04
0.00 0.00 0.00 0.01 0.01 0.01 0.01 0.01 0.00 0.01 0.00 0.00 0.00 0.00 0.00 0.00 0.00 0.00 0.00 0.00 0.00 0.01 0.01 0.01 0.01 0.01 0.01 0.01 0.01 0.02 0.02 0.03 0.01 0.01 0.02 0.03 0.06 0.05 0.04 0.04 0.05 0.03 0.03
0.01 0.00 0.00 0.00 0.01 0.00 0.00 0.00 0.00 0.00 0.00 0.01 0.01 0.00 0.00 0.00 0.00 0.00 0.00 0.00 0.00 0.00 0.00 0.01 0.01 0.01 0.01 0.01 0.02 0.02 0.02 0.01 0.01 0.02 0.02 0.03 0.06 0.06 0.06 0.07 0.06 0.03 0.03
0.01 0.00 0.00 0.00 0.00 0.00 0.00 0.00 0.00 0.00 0.00 0.00 0.00 0.00 0.00 0.00 0.00 0.00 0.00 0.01 0.01 0.01 0.01 0.01 0.01 0.02 0.02 0.02 0.03 0.03 0.02 0.01 0.01 0.02 0.02 0.05 0.06 0.06 0.06 0.09 0.07 0.04 0.04
0.01 0.01 0.00 0.00 0.00 0.00 0.00 0.00 0.00 0.00 0.00 0.00 0.00 0.00 0.00 0.00 0.00 0.00 0.00 0.01 0.01 0.01 0.01 0.01 0.01 0.02 0.02 0.02 0.03 0.02 0.02 0.02 0.02 0.02 0.03 0.06 0.05 0.05 0.07 0.08 0.07 0.04 0.04
0.00 0.00 0.00 0.00 0.00 0.00 0.00 0.00 0.00 0.00 0.00 0.00 0.00 0.00 0.00 0.00 0.00 0.00 0.00 0.00 0.00 0.00 0.00 0.00 0.00 0.01 0.01 0.02 0.02 0.02 0.02 0.02 0.01 0.01 0.03 0.06 0.06 0.05 0.06 0.06 0.06 0.05 0.04
0.00 0.00 0.00 0.00 0.00 0.00 0.00 0.00 0.00 0.00 0.00 0.00 0.00 0.00 0.00 0.00 0.00 0.00 0.00 0.00 0.00 0.00 0.00 0.00 0.00 0.00 0.01 0.02 0.01 0.02 0.03 0.02 0.01 0.01 0.02 0.05 0.06 0.07 0.07 0.06 0.06 0.04 0.03
0.00 0.00 0.00 0.00 0.00 0.00 0.00 0.00 0.00 0.00 0.00 0.00 0.00 0.00 0.00 0.00 0.00 0.00 0.00 0.00 0.00 0.01 0.01 0.00 0.00 0.00 0.01 0.02 0.02 0.02 0.02 0.01 0.01 0.00 0.01 0.03 0.04 0.06 0.07 0.06 0.04 0.03 0.02
0.00 0.00 0.00 0.00 0.00 0.00 0.00 0.00 0.00 0.00 0.00 0.00 0.00 0.00 0.00 0.00 0.00 0.00 0.00 0.00 0.01 0.01 0.01 0.00 0.00 0.01 0.01 0.02 0.02 0.02 0.02 0.02 0.01 0.01 0.01 0.02 0.03 0.05 0.06 0.06 0.04 0.03 0.02
0.00 0.00 0.00 0.00 0.00 0.00 0.00 0.00 0.00 0.00 0.00 0.00 0.00 0.00 0.00 0.00 0.00 0.00 0.00 0.00 0.01 0.01 0.00 0.00 0.01 0.01 0.02 0.02 0.01 0.02 0.02 0.02 0.02 0.01 0.01 0.01 0.02 0.03 0.05 0.05 0.04 0.03 0.03
0.00 0.00 0.00 0.00 0.00 0.00 0.00 0.00 0.00 0.00 0.00 0.00 0.00 0.00 0.00 0.00 0.00 0.00 0.00 0.00 0.00 0.00 0.00 0.00 0.00 0.01 0.01 0.01 0.01 0.02 0.02 0.02 0.02 0.02 0.01 0.01 0.02 0.02 0.03 0.03 0.04 0.05 0.04
0.00 0.00 0.00 0.00 0.00 0.00 0.00 0.00 0.00 0.00 0.00 0.00 0.00 0.00 0.00 0.00 0.00 0.00 0.00 0.00 0.00 0.00 0.00 0.00 0.00 0.00 0.01 0.02 0.01 0.02 0.03 0.04 0.04 0.03 0.02 0.03 0.03 0.02 0.02 0.02 0.04 0.05 0.05
0.00 0.00 0.00 0.00 0.00 0.00 0.00 0.00 0.00 0.00 0.00 0.00 0.00 0.00 0.00 0.00 0.00 0.00 0.00 0.00 0.00 0.00 0.00 0.00 0.01 0.02 0.02 0.02 0.02 0.02 0.03 0.06 0.07 0.09 0.07 0.06 0.05 0.04 0.03 0.02 0.03 0.02 0.03
0.00 0.00 0.00 0.00 0.00 0.00 0.00 0.00 0.00 0.00 0.00 0.00 0.00 0.00 0.00 0.00 0.00 0.00 0.00 0.00 0.00 0.00 0.00 0.00 0.01 0.01 0.01 0.01 0.01 0.01 0.04 0.08 0.08 0.12 0.10 0.09 0.06 0.05 0.04 0.02 0.02 0.01 0.01
0.00 0.00 0.00 0.00 0.00 0.00 0.00 0.00 0.00 0.00 0.00 0.00 0.00 0.00 0.00 0.01 0.01 0.00 0.00 0.00 0.00 0.00 0.00 0.00 0.00 0.00 0.01 0.01 0.00 0.00 0.02 0.05 0.09 0.09 0.08 0.06 0.05 0.05 0.06 0.04 0.02 0.01 0.01
0.00 0.00 0.00 0.00 0.00 0.00 0.00 0.00 0.00 0.00 0.00 0.00 0.00 0.00 0.00 0.00 0.00 0.01 0.01 0.01 0.01 0.00 0.00 0.00 0.00 0.00 0.01 0.01 0.01 0.01 0.01 0.03 0.05 0.05 0.05 0.05 0.05 0.07 0.07 0.03 0.02 0.02 0.02
0.00 0.00 0.00 0.00 0.00 0.00 0.00 0.00 0.00 0.00 0.00 0.00 0.00 0.00 0.00 0.00 0.00 0.01 0.01 0.01 0.00 0.00 0.00 0.00 0.00 0.00 0.00 0.00 0.00 0.01 0.01 0.01 0.01 0.01 0.03 0.04 0.06 0.05 0.04 0.03 0.03 0.02 0.02
0.00 0.00 0.00 0.01 0.01 0.00 0.00 0.00 0.00 0.00 0.00 0.00 0.00 0.00 0.00 0.00 0.01 0.01 0.01 0.01 0.00 0.00 0.00 0.00 0.00 0.00 0.00 0.01 0.00 0.00 0.01 0.02 0.01 0.01 0.01 0.02 0.04 0.04 0.04 0.03 0.03 0.03 0.02
0.01 0.01 0.01 0.01 0.01 0.00 0.00 0.00 0.00 0.00 0.00 0.00 0.00 0.00 0.00 0.00 0.00 0.00 0.00 0.00 0.01 0.00 0.00 0.00 0.00 0.00 0.00 0.00 0.00 0.00 0.01 0.02 0.01 0.01 0.01 0.01 0.02 0.03 0.03 0.03 0.02 0.03 0.02
MSLP
1015.43 1014.83 1014.37 1014.12 1014.06 1014.14 1014.27 1014.38 1014.40 1014.30 1014.10 1013.86 1013.64 1013.49 1013.46 1013.54 1013.70 1013.89 1014.06 1014.15 1014.15 1014.07 1013.95 1013.82 1013.73 1013.69 1013.70 1013.74 1013.77 1013.76 1013.68 1013.54 1013.35 1013.13 1012.93 1012.77 1012.66 1012.60 1012.56 1012.52 1012.43 1012.30 1012.12
1015.46 1014.93 1014.53 1014.33 1014.30 1014.41 1014.55 1014.66 1014.67 1014.57 1014.38 1014.16 1013.96 1013.86 1013.87 1013.98 1014.16 1014.35 1014.49 1014.55 1014.51 1014.39 1014.23 1014.06 1013.94 1013.86 1013.83 1013.82 1013.79 1013.72 1013.58 1013.40 1013.18 1012.97 1012.81 1012.70 1012.66 1012.65 1012.63 1012.57 1012.43 1012.19 1011.88
1015.47 1014.98 1014.64 1014.49 1014.51 1014.64 1014.80 1014.92 1014.94 1014.86 1014.69 1014.50 1014.35 1014.28 1014.32 1014.44 1014.61 1014.77 1014.87 1014.87 1014.77 1014.60 1014.40 1014.21 1014.06 1013.96 1013.90 1013.84 1013.76 1013.63 1013.45 1013.23 1013.02 1012.84 1012.72 1012.69 1012.71 1012.75 1012.75 1012.65 1012.42 1012.05 1011.57
1015.48 1015.04 1014.76 1014.65 1014.71 1014.87 1015.06 1015.19 1015.23 1015.17 1015.03 1014.87 1014.75 1014.70 1014.75 1014.86 1014.99 1015.09 1015.12 1015.05 1014.89 1014.68 1014.45 1014.25 1014.09 1013.98 1013.90 1013.82 1013.71 1013.54 1013.33 1013.10 1012.90 1012.76 1012.70 1012.73 1012.81 1012.88 1012.87 1012.72 1012.37 1011.83 1011.16
1015.53 1015.16 1014.93 1014.87 1014.97 1015.15 1015.35 1015.49 1015.53 1015.48 1015.36 1015.22 1015.12 1015.08 1015.10 1015.18 1015.25 1015.28 1015.23 1015.10 1014.89 1014.64 1014.40 1014.20 1014.06 1013.96 1013.89 1013.80 1013.67 1013.50 1013.27 1013.05 1012.86 1012.76 1012.76 1012.84 1012.95 1013.03 1012.99 1012.75 1012.27 1011.56 1010.69
1015.67 1015.35 1015.17 1015.17 1015.30 1015.49 1015.69 1015.81 1015.84 1015.78 1015.65 1015.52 1015.41 1015.36 1015.36 1015.39 1015.40 1015.36 1015.24 1015.04 1014.79 1014.53 1014.29 1014.12 1014.01 1013.94 1013.90 1013.82 1013.70 1013.52 1013.30 1013.09 1012.92 1012.85 1012.88 1012.99 1013.11 1013.17 1013.07 1012.73 1012.12 1011.25 1010.20
1015.87 1015.61 1015.49 1015.53 1015.68 1015.87 1016.04 1016.13 1016.13 1016.04 1015.89 1015.74 1015.63 1015.56 1015.53 1015.52 1015.47 1015.37 1015.19 1014.94 1014.67 1014.40 1014.18 1014.04 1013.98 1013.96 1013.95 1013.91 1013.80 1013.64 1013.43 1013.22 1013.07 1013.01 1013.05 1013.16 1013.26 1013.28 1013.12 1012.69 1011.97 1010.98 1009.80
1016.13 1015.93 1015.87 1015.94 1016.10 1016.27 1016.39 1016.43 1016.37 1016.24 1016.06 1015.89 1015.77 1015.69 1015.65 1015.60 1015.52 1015.37 1015.15 1014.87 1014.58 1014.32 1014.13 1014.02 1014.00 1014.03 1014.06 1014.05 1013.97 1013.82 1013.63 1013.43 1013.28 1013.21 1013.24 1013.33 1013.40 1013.38 1013.16 1012.67 1011.89 1010.83 1009.59
1016.41 1016.27 1016.26 1016.35 1016.50 1016.64 1016.70 1016.68 1016.56 1016.37 1016.17 1015.99 1015.87 1015.80 1015.75 1015.70 1015.60 1015.43 1015.18 1014.88 1014.59 1014.33 1014.16 1014.08 1014.10 1014.16 1014.23 1014.25 1014.19 1014.06 1013.87 1013.68 1013.52 1013.44 1013.44 1013.49 1013.53 1013.47 1013.22 1012.71 1011.93 1010.88 1009.68
1016.67 1016.59 1016.62 1016.73 1016.87 1016.96 1016.97 1016.87 1016.70 1016.47 1016.26 1016.08 1015.97 1015.92 1015.90 1015.85 1015.75 1015.57 1015.31 1015.01 1014.70 1014.45 1014.28 1014.22 1014.26 1014.34 1014.43 1014.47 1014.44 1014.32 1014.14 1013.94 1013.77 1013.67 1013.64 1013.66 1013.66 1013.58 1013.34 1012.87 1012.14 1011.20 1010.10
1016.89 1016.86 1016.94 1017.06 1017.18 1017.23 1017.18 1017.03 1016.81 1016.57 1016.35 1016.19 1016.12 1016.10 1016.11 1016.09 1016.00 1015.82 1015.56 1015.24 1014.93 1014.66 1014.49 1014.43 1014.47 1014.56 1014.66 1014.71 1014.69 1014.58 1014.41 1014.21 1014.03 1013.90 1013.84 1013.83 1013.82 1013.74 1013.54 1013.15 1012.55 1011.76 1010.85
1017.06 1017.09 1017.20 1017.34 1017.44 1017.45 1017.36 1017.18 1016.94 1016.69 1016.49 1016.36 1016.33 1016.35 1016.39 1016.40 1016.32 1016.15 1015.88 1015.56 1015.23 1014.96 1014.77 1014.70 1014.73 1014.82 1014.91 1014.97 1014.96 1014.86 1014.69 1014.49 1014.30 1014.15 1014.07 1014.04 1014.02 1013.97 1013.83 1013.55 1013.11 1012.52 1011.83
1017.19 1017.28 1017.42 1017.57 1017.66 1017.65 1017.54 1017.34 1017.10 1016.87 1016.70 1016.61 1016.62 1016.68 1016.74 1016.77 1016.70 1016.53 1016.25 1015.92 1015.59 1015.30 1015.11 1015.02 1015.03 1015.11 1015.20 1015.27 1015.26 1015.17 1015.02 1014.82 1014.62 1014.46 1014.35 1014.30 1014.29 1014.26 1014.19 1014.04 1013.77 1013.39 1012.93
1017.30 1017.44 1017.61 1017.77 1017.86 1017.85 1017.73 1017.54 1017.32 1017.13 1016.99 1016.95 1016.98 1017.06 1017.14 1017.16 1017.09 1016.91 1016.64 1016.31 1015.97 1015.68 1015.48 1015.39 1015.40 1015.47 1015.56 1015.63 1015.63 1015.56 1015.42 1015.23 1015.03 1014.85 1014.72 1014.65 1014.63 1014.63 1014.62 1014.57 1014.45 1014.26 1014.00
1017.41 1017.58 1017.78 1017.95 1018.04 1018.04 1017.95 1017.79 1017.61 1017.46 1017.36 1017.35 1017.39 1017.47 1017.54 1017.55 1017.47 1017.29 1017.01 1016.69 1016.37 1016.10 1015.91 1015.82 1015.83 1015.90 1016.00 1016.08 1016.10 1016.05 1015.92 1015.74 1015.54 1015.35 1015.20 1015.10 1015.06 1015.05 1015.08 1015.10 1015.09 1015.04 1014.94
1017.53 1017.72 1017.93 1018.10 1018.21 1018.24 1018.19 1018.08 1017.96 1017.85 1017.79 1017.79 1017.83 1017.89 1017.93 1017.91 1017.81 1017.62 1017.36 1017.07 1016.78 1016.55 1016.39 1016.33 1016.35 1016.43 1016.54 1016.63 1016.67 1016.64 1016.54 1016.37 1016.18 1015.97 1015.79 1015.66 1015.58 1015.55 1015.57 1015.61 1015.66 1015.69 1015.69
1017.66 1017.85 1018.06 1018.23 1018.36 1018.42 1018.42 1018.38 1018.33 1018.28 1018.25 1018.26 1018.28 1018.30 1018.30 1018.24 1018.12 1017.93 1017.70 1017.45 1017.22 1017.04 1016.93 1016.90 1016.95 1017.05 1017.16 1017.27 1017.33 1017.32 1017.24 1017.10 1016.92 1016.71 1016.50 1016.33 1016.20 1016.12 1016.10 1016.13 1016.18 1016.23 1016.28
1017.81 1017.98 1018.16 1018.33 1018.47 1018.58 1018.64 1018.68 1018.70 1018.70 1018.71 1018.72 1018.71 1018.69 1018.64 1018.54 1018.40 1018.23 1018.04 1017.85 1017.68 1017.57 1017.51 1017.52 1017.60 1017.71 1017.84 1017.95 1018.03 1018.05 1018.00 1017.90 1017.73 1017.53 1017.31 1017.10 1016.92 1016.79 1016.71 1016.68 1016.70 1016.73 1016.77
1017.97 1018.10 1018.24 1018.39 1018.54 1018.69 1018.83 1018.94 1019.04 1019.10 1019.14 1019.15 1019.12 1019.06 1018.96 1018.83 1018.69 1018.54 1018.39 1018.26 1018.17 1018.12 1018.12 1018.17 1018.26 1018.38 1018.50 1018.62 1018.72 1018.77 1018.76 1018.70 1018.57 1018.40 1018.19 1017.96 1017.75 1017.56 1017.42 1017.33 1017.29 1017.27 1017.27
1018.12 1018.20 1018.29 1018.42 1018.58 1018.77 1018.97 1019.16 1019.33 1019.46 1019.53 1019.54 1019.50 1019.40 1019.27 1019.13 1018.99 1018.86 1018.77 1018.71 1018.68 1018.69 1018.73 1018.80 1018.89 1019.00 1019.12 1019.24 1019.35 1019.43 1019.47 1019.47 1019.40 1019.28 1019.11 1018.90 1018.67 1018.45 1018.26 1018.11 1018.00 1017.93 1017.88
1018.27 1018.28 1018.33 1018.42 1018.58 1018.80 1019.06 1019.33 1019.57 1019.76 1019.87 1019.90 1019.84 1019.73 1019.58 1019.43 1019.30 1019.21 1019.17 1019.17 1019.20 1019.25 1019.31 1019.38 1019.46 1019.55 1019.64 1019.75 1019.87 1019.99 1020.10 1020.17 1020.18 1020.14 1020.03 1019.86 1019.66 1019.43 1019.21 1019.02 1018.86 1018.73 1018.63
1018.39 1018.35 1018.35 1018.42 1018.57 1018.82 1019.12 1019.45 1019.76 1020.01 1020.16 1020.20 1020.15 1020.04 1019.89 1019.75 1019.64 1019.58 1019.58 1019.63 1019.70 1019.77 1019.84 1019.90 1019.95 1020.00 1020.07 1020.17 1020.30 1020.46 1020.62 1020.78 1020.89 1020.94 1020.91 1020.82 1020.66 1020.46 1020.24 1020.03 1019.83 1019.67 1019.52
1018.47 1018.39 1018.35 1018.40 1018.55 1018.81 1019.15 1019.54 1019.90 1020.20 1020.39 1020.46 1020.43 1020.33 1020.19 1020.07 1019.99 1019.96 1020.00 1020.07 1020.17 1020.25 1020.31 1020.35 1020.36 1020.37 1020.42 1020.50 1020.64 1020.84 1021.06 1021.30 1021.51 1021.66 1021.73 1021.72 1021.62 1021.47 1021.27 1021.06 1020.85 1020.66 1020.49
1018.48 1018.39 1018.34 1018.37 1018.51 1018.79 1019.16 1019.58 1019.99 1020.33 1020.56 1020.67 1020.67 1020.59 1020.48 1020.38 1020.32 1020.33 1020.39 1020.49 1020.59 1020.68 1020.73 1020.74 1020.72 1020.71 1020.72 1020.80 1020.95 1021.17 1021.45 1021.76 1022.05 1022.29 1022.45 1022.52 1022.49 1022.39 1022.23 1022.04 1021.83 1021.63 1021.44
1018.39 1018.33 1018.28 1018.31 1018.46 1018.74 1019.13 1019.58 1020.02 1020.40 1020.67 1020.82 1020.85 1020.81 1020.73 1020.66 1020.64 1020.67 1020.75 1020.87 1020.98 1021.07 1021.11 1021.10 1021.07 1021.04 1021.04 1021.12 1021.27 1021.52 1021.83 1022.18 1022.52 1022.83 1023.05 1023.19 1023.23 1023.18 1023.06 1022.89 1022.70 1022.49 1022.28
1018.21 1018.19 1018.16 1018.21 1018.37 1018.66 1019.06 1019.53 1020.00 1020.41 1020.72 1020.91 1020.99 1020.98 1020.94 1020.91 1020.92 1020.98 1021.08 1021.21 1021.34 1021.43 1021.47 1021.47 1021.44 1021.41 1021.42 1021.49 1021.65 1021.90 1022.22 1022.58 1022.95 1023.28 1023.55 1023.72 1023.80 1023.80 1023.72 1023.58 1023.40 1023.20 1022.99
Thickness
5765 5767 5767 5767 5766 5765 5763 5762 5761 5760 5759 5758 5756 5754 5753 5752 5751 5750 5749 5748 5747 5747 5746 5747 5747 5747 5748 5749 5750 5751 5752 5753 5754 5755 5756 5757 5758 5760 5761 5762 5764 5766 5767
5767 5766 5766 5765 5764 5763 5762 5760 5759 5758 5757 5755 5754 5752 5751 5750 5748 5747 5746 5746 5745 5744 5744 5744 5745 5745 5746 5746 5747 5748 5750 5751 5752 5754 5755 5756 5757 5758 5760 5761 5763 5764 5766
5767 5765 5764 5763 5762 5761 5760 5758 5757 5755 5754 5753 5751 5750 5748 5747 5746 5745 5744 5743 5743 5742 5742 5742 5742 5743 5743 5744 5745 5746 5748 5749 5751 5752 5753 5754 5755 5757 5758 5760 5762 5763 5765
5766 5764 5763 5762 5760 5759 5758 5756 5755 5753 5752 5751 5749 5747 5746 5745 5744 5743 5742 5741 5740 5740 5740 5740 5740 5740 5741 5742 5743 5744 5746 5747 5749 5750 5752 5753 5754 5755 5757 5758 5760 5762 5763
5764 5763 5762 5760 5759 5757 5756 5754 5753 5751 5750 5749 5747 5745 5744 5743 5742 5741 5740 5739 5738 5738 5737 5737 5737 5738 5739 5739 5741 5742 5743 5745 5747 5748 5750 5751 5753 5754 5755 5757 5758 5760 5762
5763 5761 5760 5759 5757 5756 5754 5752 5751 5750 5748 5747 5745 5743 5742 5741 5740 5739 5738 5737 5736 5735 5735 5735 5735 5736 5736 5737 5738 5740 5741 5743 5744 5746 5747 5749 5751 5752 5754 5755 5757 5758 5760
5761 5760 5759 5758 5756 5754 5753 5751 5750 5748 5747 5745 5743 5742 5741 5740 5738 5737 5736 5735 5734 5733 5733 5732 5732 5733 5734 5735 5736 5737 5739 5740 5742 5743 5745 5747 5749 5751 5752 5753 5755 5757 5759
5761 5759 5758 5757 5755 5753 5752 5750 5748 5747 5745 5744 5742 5741 5739 5738 5737 5736 5734 5733 5732 5731 5730 5730 5730 5730 5731 5732 5733 5735 5736 5738 5739 5741 5743 5745 5747 5749 5750 5752 5753 5755 5757
5760 5758 5756 5755 5754 5752 5751 5749 5747 5746 5745 5743 5742 5740 5739 5737 5736 5734 5733 5731 5730 5729 5728 5728 5728 5728 5729 5730 5731 5732 5734 5735 5737 5738 5740 5742 5744 5746 5748 5750 5751 5753 5756
5758 5757 5755 5754 5753 5751 5750 5748 5747 5745 5744 5743 5741 5740 5738 5736 5735 5733 5731 5729 5728 5727 5726 5726 5726 5727 5727 5728 5729 5730 5731 5732 5734 5736 5738 5740 5742 5744 5746 5747 5749 5751 5753
5756 5755 5754 5753 5751 5750 5749 5748 5746 5745 5743 5742 5740 5739 5737 5735 5734 5732 5730 5728 5726 5725 5725 5724 5724 5725 5726 5726 5727 5728 5729 5730 5731 5733 5735 5738 5740 5742 5743 5744 5746 5748 5751
5752 5753 5754 5752 5751 5749 5748 5747 5745 5744 5743 5741 5739 5738 5736 5734 5733 5730 5728 5726 5725 5724 5723 5722 5723 5723 5724 5724 5724 5725 5726 5728 5729 5731 5733 5735 5737 5739 5740 5742 5743 5746 5748
5754 5754 5754 5753 5751 5749 5748 5746 5744 5743 5742 5741 5739 5737 5735 5733 5731 5729 5727 5725 5723 5722 5721 5720 5720 5720 5721 5721 5722 5723 5724 5725 5726 5728 5730 5732 5734 5736 5737 5739 5741 5743 5745
5754 5754 5754 5753 5751 5749 5747 5745 5743 5742 5741 5739 5738 5736 5734 5731 5729 5727 5725 5723 5722 5720 5719 5719 5718 5718 5719 5719 5720 5721 5722 5722 5724 5725 5727 5729 5731 5733 5734 5736 5738 5740 5742
5753 5753 5753 5752 5750 5749 5746 5744 5743 5741 5739 5738 5736 5734 5733 5730 5727 5726 5724 5722 5720 5719 5718 5717 5716 5716 5717 5717 5718 5719 5719 5720 5721 5722 5724 5726 5728 5730 5731 5733 5735 5737 5740
5752 5752 5752 5751 5750 5748 5746 5744 5742 5740 5738 5737 5735 5733 5731 5729 5727 5725 5723 5721 5719 5718 5717 5716 5716 5715 5715 5715 5716 5716 5717 5718 5719 5720 5722 5723 5725 5727 5729 5731 5733 5735 5737
5752 5752 5751 5751 5750 5747 5745 5743 5741 5739 5738 5736 5734 5732 5730 5728 5726 5724 5722 5720 5719 5718 5717 5716 5715 5714 5714 5713 5713 5714 5715 5716 5717 5718 5719 5720 5722 5724 5726 5728 5730 5732 5735
5752 5751 5751 5751 5748 5746 5744 5742 5740 5738 5737 5734 5733 5731 5729 5727 5725 5723 5721 5719 5718 5717 5716 5715 5713 5712 5710 5710 5710 5711 5712 5713 5715 5716 5717 5718 5719 5721 5722 5724 5726 5729 5732
5751 5750 5749 5748 5746 5744 5742 5740 5739 5737 5735 5733 5731 5730 5728 5726 5725 5723 5720 5719 5718 5717 5715 5714 5712 5710 5708 5708 5708 5709 5709 5711 5712 5714 5715 5715 5717 5718 5720 5721 5723 5726 5728
5750 5749 5748 5746 5744 5742 5741 5739 5736 5734 5733 5732 5730 5728 5727 5726 5724 5722 5720 5718 5717 5716 5714 5712 5711 5710 5708 5707 5708 5707 5706 5708 5709 5710 5711 5713 5714 5715 5717 5718 5720 5723 5725
5748 5746 5745 5743 5742 5741 5738 5735 5732 5729 5729 5729 5728 5727 5726 5725 5724 5722 5719 5718 5716 5714 5712 5712 5710 5709 5707 5707 5705 5702 5703 5705 5705 5706 5708 5710 5711 5713 5714 5715 5717 5719 5722
5745 5744 5743 5742 5741 5740 5738 5736 5733 5730 5729 5728 5727 5726 5725 5724 5723 5721 5719 5717 5715 5713 5712 5711 5710 5707 5706 5706 5703 5697 5693 5695 5700 5703 5705 5707 5708 5710 5711 5712 5714 5716 5718
5742 5743 5744 5742 5741 5739 5738 5736 5732 5729 5727 5725 5724 5724 5724 5723 5722 5720 5718 5717 5715 5713 5710 5710 5709 5707 5703 5704 5704 5699 5691 5687 5691 5697 5700 5703 5705 5706 5708 5709 5711 5712 5714
5743 5744 5743 5742 5740 5739 5737 5735 5730 5726 5722 5722 5722 5722 5723 5722 5721 5720 5718 5716 5715 5713 5711 5710 5708 5707 5705 5701 5702 5701 5699 5696 5692 5689 5694 5698 5701 5702 5704 5706 5707 5709 5711
5743 5743 5742 5740 5739 5738 5736 5734 5730 5726 5724 5723 5722 5722 5721 5721 5720 5719 5717 5716 5714 5712 5710 5709 5707 5706 5704 5701 5699 5699 5698 5696 5695 5690 5687 5690 5695 5697 5700 5702 5703 5705 5707
5742 5741 5740 5738 5736 5736 5735 5733 5731 5727 5725 5722 5721 5719 5719 5718 5718 5718 5717 5715 5713 5711 5710 5708 5706 5704 5702 5700 5699 5698 5696 5694 5692 5690 5687 5686 5688 5691 5696 5698 5699 5701 5703